Waarnemingen

Advertentie
Mijn weer
Bierset/Liege, België (6478): temperatuur & dauwpunt: 29.03.2020 02:00:00 - 04.04.2020 02:00:00 (CEST)Bierset/Liege, België (6478): windsnelheid & windstoten: 29.03.2020 02:00:00 - 04.04.2020 02:00:00 (CEST)Bierset/Liege, België (6478): windrichting: 29.03.2020 02:00:00 - 04.04.2020 02:00:00 (CEST)Bierset/Liege, België (6478): luchtdruk: 29.03.2020 02:00:00 - 04.04.2020 02:00:00 (CEST)Bierset/Liege, België (6478): zicht: 29.03.2020 02:00:00 - 04.04.2020 02:00:00 (CEST)
Datum & Tijd tt [°C] td [°C] ff [km/u] ff [kn] fx [km/u] fx [kn] dd ppp [hPa] vv [km]
04.04.2020 02:00:00 - - - - - - - - -
04.04.2020 01:00:00 5,5 -3,2 8 4 7 4 OZO 1022,6 10
04.04.2020 00:00:00 5,5 -3,7 5 3 7 4 NO 1022,2 10
03.04.2020 23:00:00 5,4 -3,3 5 3 - - N 1021,9 10
03.04.2020 22:00:00 5,4 -2,7 5 3 11 6 N 1021,5 10
03.04.2020 21:00:00 5,8 -1,9 8 4 14 8 NNW 1020,9 10
03.04.2020 20:00:00 7,5 -1,5 11 6 - - NW 1020,1 10
03.04.2020 19:00:00 8,7 -1,0 15 8 29 16 WNW 1019,6 10
03.04.2020 18:00:00 9,4 -0,8 15 8 29 16 WNW 1019,0 10
03.04.2020 17:00:00 9,4 -1,3 18 10 - - NW 1018,7 10
03.04.2020 16:00:00 9,4 -0,5 15 8 29 16 W 1018,5 10
03.04.2020 15:00:00 9,7 0,2 18 10 32 18 W 1018,4 20
03.04.2020 14:00:00 8,1 1,0 18 10 - - W 1018,3 10
03.04.2020 13:00:00 8,7 1,7 16 9 29 16 W 1017,9 10
03.04.2020 12:00:00 8,4 2,4 21 11 29 16 W 1017,5 10
03.04.2020 11:00:00 7,4 2,1 21 11 - - W 1017,0 10
03.04.2020 10:00:00 7,1 3,5 18 10 25 14 W 1016,4 10
03.04.2020 09:00:00 5,8 3,0 11 6 18 10 W 1016,0 10
03.04.2020 08:00:00 4,6 3,0 11 6 - - WZW 1015,5 10
03.04.2020 07:00:00 5,7 4,1 15 8 22 12 WZW 1014,8 10
03.04.2020 06:00:00 5,6 4,3 15 8 25 14 WZW 1014,3 10
03.04.2020 05:00:00 6,2 4,3 16 9 - - WZW 1014,0 10
03.04.2020 04:00:00 6,3 4,0 16 9 29 16 WZW 1013,5 10
03.04.2020 03:00:00 5,6 2,9 13 7 22 12 ZW 1013,5 10
03.04.2020 02:00:00 5,7 2,5 16 9 - - ZW 1013,6 10
03.04.2020 01:00:00 6,6 2,3 16 9 29 16 WZW 1014,0 10
03.04.2020 00:00:00 6,7 0,5 13 7 25 14 ZW 1013,9 10
02.04.2020 23:00:00 5,6 0,2 13 7 - - ZW 1014,0 10
02.04.2020 22:00:00 6,6 0,4 15 8 18 10 ZW 1013,9 10
02.04.2020 21:00:00 7,3 0,8 8 4 22 12 WZW 1013,8 10
02.04.2020 20:00:00 7,9 0,2 15 8 - - WNW 1013,9 10
02.04.2020 19:00:00 8,3 0,0 16 9 25 14 W 1013,6 10
02.04.2020 18:00:00 8,7 0,0 15 8 29 16 W 1013,5 10
02.04.2020 17:00:00 8,8 -1,2 15 8 - - WNW 1013,8 10
02.04.2020 16:00:00 9,6 -0,3 13 7 25 14 W 1014,1 10
02.04.2020 15:00:00 8,7 -1,1 9 5 22 12 WNW 1014,5 10
02.04.2020 14:00:00 7,5 -1,8 9 5 - - WZW 1015,1 10
02.04.2020 13:00:00 6,3 -1,6 11 6 18 10 W 1015,8 10
02.04.2020 12:00:00 4,9 0,5 9 5 22 12 NW 1016,4 10
02.04.2020 11:00:00 5,0 1,1 5 3 - - - 1016,6 10
02.04.2020 10:00:00 2,8 0,8 5 3 11 6 WZW 1016,6 9
02.04.2020 09:00:00 1,1 -0,1 4 2 11 6 - 1017,0 5
02.04.2020 08:00:00 -0,1 -0,9 4 2 - - - 1017,2 6
02.04.2020 07:00:00 0,0 -1,0 5 3 7 4 ZW 1016,8 8
02.04.2020 06:00:00 0,5 -0,9 4 2 7 4 - 1017,0 9
02.04.2020 05:00:00 0,7 -0,9 4 2 - - - 1017,5 10
02.04.2020 04:00:00 0,3 -1,6 5 3 7 4 NW 1017,9 10
02.04.2020 03:00:00 1,0 -1,4 5 3 11 6 NW 1018,1 10
02.04.2020 02:00:00 1,4 -1,5 9 5 - - NNW 1018,3 10
02.04.2020 01:00:00 1,8 -1,5 8 4 14 8 NNW 1018,5 10
02.04.2020 00:00:00 2,9 -3,2 8 4 11 6 NNW 1018,7 10
01.04.2020 23:00:00 4,3 -4,3 8 4 - - N 1018,5 10
01.04.2020 22:00:00 5,6 -4,7 5 3 11 6 N 1018,5 10
01.04.2020 21:00:00 6,6 -4,3 5 3 7 4 NW 1018,3 10
01.04.2020 20:00:00 7,6 -4,1 5 3 - - NNO 1018,3 10
01.04.2020 19:00:00 9,0 -4,8 8 4 18 10 N 1018,5 10
01.04.2020 18:00:00 9,3 -5,3 2 1 14 8 - 1018,9 10
01.04.2020 17:00:00 9,4 -5,3 5 3 - - - 1019,5 10
01.04.2020 16:00:00 8,9 -5,9 5 3 18 10 N 1020,2 10
01.04.2020 15:00:00 8,3 -6,0 8 4 18 10 - 1020,8 10
01.04.2020 14:00:00 8,5 -4,3 9 5 - - NO 1021,6 10
01.04.2020 13:00:00 7,7 -4,3 11 6 18 10 N 1022,5 10
01.04.2020 12:00:00 6,3 -5,0 9 5 14 8 NNO 1023,6 10
01.04.2020 11:00:00 4,7 -3,9 2 1 - - - 1024,2 10
01.04.2020 10:00:00 3,3 -4,3 2 1 11 6 - 1024,4 10
01.04.2020 09:00:00 0,2 -3,6 5 3 11 6 ZO 1024,7 10
01.04.2020 08:00:00 -0,6 -4,8 2 1 - - - 1024,8 10
01.04.2020 07:00:00 -0,9 -4,7 2 1 18 10 - 1025,0 10
01.04.2020 06:00:00 0,0 -4,9 4 2 11 6 ZO 1025,0 10
01.04.2020 05:00:00 0,4 -5,2 4 2 - - NO 1025,5 10
01.04.2020 04:00:00 0,5 -5,5 4 2 22 12 - 1026,1 10
01.04.2020 03:00:00 1,5 -5,2 8 4 18 10 ONO 1026,4 10
01.04.2020 02:00:00 1,2 -5,3 8 4 - - NO 1026,8 10
01.04.2020 01:00:00 1,8 -5,5 5 3 14 8 NNO 1027,3 10
01.04.2020 00:00:00 2,3 -5,2 11 6 14 8 NO 1027,5 10
31.03.2020 23:00:00 2,8 -5,6 8 4 - - NO 1027,8 10
31.03.2020 22:00:00 3,5 -4,9 9 5 29 16 NO 1028,1 10
31.03.2020 21:00:00 4,1 -5,4 11 6 22 12 NO 1028,3 10
31.03.2020 20:00:00 6,1 -5,7 15 8 - - NO 1028,2 10
31.03.2020 19:00:00 7,3 -5,6 21 11 32 18 NO 1028,1 10
31.03.2020 18:00:00 8,0 -4,8 18 10 29 16 NNO 1028,1 20
31.03.2020 17:00:00 8,4 -4,9 18 10 - - NO 1028,4 10
31.03.2020 16:00:00 8,5 -5,2 16 9 32 18 NO 1028,8 10
31.03.2020 15:00:00 7,8 -4,3 21 11 47 25 NO 1029,4 10
31.03.2020 14:00:00 6,9 -3,2 18 10 - - NO 1029,8 10
31.03.2020 13:00:00 5,2 -0,8 18 10 29 16 NO 1030,4 10
31.03.2020 12:00:00 4,0 0,0 16 9 25 14 NNO 1030,9 10
31.03.2020 11:00:00 2,9 0,6 15 8 - - NNO 1031,0 7
31.03.2020 10:00:00 1,6 0,4 16 9 25 14 NO 1031,0 3,5
31.03.2020 09:00:00 1,7 0,5 18 10 32 18 NO 1030,3 6
31.03.2020 08:00:00 1,3 0,0 13 7 - - NO 1029,6 9
31.03.2020 07:00:00 2,1 0,1 14 8 22 12 NO 1029,2 9
31.03.2020 06:00:00 3,1 1,5 15 8 22 12 NNO 1028,4 9
31.03.2020 05:00:00 3,2 1,7 11 6 - - NNO 1028,3 10
31.03.2020 04:00:00 2,8 1,7 11 6 14 8 NO 1028,4 10
31.03.2020 03:00:00 3,1 1,8 5 3 14 8 N 1028,3 10
31.03.2020 02:00:00 3,7 1,7 9 5 - - N 1028,2 10
31.03.2020 01:00:00 3,6 1,5 8 4 11 6 N 1028,1 10
31.03.2020 00:00:00 3,3 1,0 5 3 11 6 NNW 1028,3 10
30.03.2020 23:00:00 3,0 0,6 8 4 - - NW 1028,1 10
30.03.2020 22:00:00 3,6 0,6 8 4 18 10 NNW 1028,0 10
30.03.2020 21:00:00 4,3 -0,4 8 4 14 8 NW 1027,8 10
30.03.2020 20:00:00 5,9 -1,0 9 5 - - NNW 1027,6 10
30.03.2020 19:00:00 6,8 -1,1 13 7 22 12 N 1027,7 10
30.03.2020 18:00:00 6,8 -2,1 15 8 22 12 NNW 1028,1 10
30.03.2020 17:00:00 6,6 -3,9 13 7 - - NNW 1028,5 10
30.03.2020 16:00:00 6,4 -4,3 13 7 29 16 N 1029,2 10
30.03.2020 15:00:00 6,5 -4,5 11 6 25 14 N 1029,9 10
30.03.2020 14:00:00 5,1 -5,8 15 8 - - NO 1030,6 10
30.03.2020 13:00:00 4,6 -6,0 16 9 29 16 NNO 1031,4 10
30.03.2020 12:00:00 3,5 -7,6 13 7 22 12 NO 1032,1 10
30.03.2020 11:00:00 2,7 -8,2 13 7 - - NNO 1032,7 10
30.03.2020 10:00:00 0,5 -7,7 5 3 11 6 NNO 1033,0 10
30.03.2020 09:00:00 -2,0 -6,5 5 3 14 8 NNO 1033,4 10
30.03.2020 08:00:00 -3,8 -7,0 5 3 - - N 1033,3 10
30.03.2020 07:00:00 -4,1 -7,6 9 5 14 8 NNO 1033,4 10
30.03.2020 06:00:00 -4,0 -8,2 9 5 14 8 NNO 1033,4 10
30.03.2020 05:00:00 -3,2 -8,5 11 6 - - NNO 1033,6 30
30.03.2020 04:00:00 -2,7 -9,6 8 4 22 12 NNO 1033,9 10
30.03.2020 03:00:00 -2,0 -9,6 14 8 22 12 NNO 1034,0 30
30.03.2020 02:00:00 -0,8 -10,0 16 9 - - NNO 1034,0 10
30.03.2020 01:00:00 -0,1 -9,5 21 11 40 21 NO 1033,9 10
30.03.2020 00:00:00 1,2 -9,4 24 13 47 25 NNO 1033,8 10
29.03.2020 23:00:00 2,4 -8,5 28 15 - - NNO 1033,4 10
29.03.2020 22:00:00 2,9 -4,8 22 12 43 23 NNO 1032,9 10
29.03.2020 21:00:00 3,0 -4,6 29 16 43 23 NNO 1032,3 10
29.03.2020 20:00:00 3,1 -2,8 26 14 - - NNO 1031,3 10
29.03.2020 19:00:00 2,4 -0,2 24 13 40 21 NO 1030,9 10
29.03.2020 18:00:00 2,1 0,3 28 15 50 27 NO 1030,3 10
29.03.2020 17:00:00 2,6 -0,1 29 16 - - NNO 1029,7 7
29.03.2020 16:00:00 2,6 -0,4 39 21 61 33 NO 1029,7 10
29.03.2020 15:00:00 3,8 -1,2 39 21 61 33 NNO 1029,2 10
29.03.2020 14:00:00 4,5 -2,0 34 18 - - NNO 1028,9 10
29.03.2020 13:00:00 3,9 -3,3 34 18 61 33 N 1028,7 10
29.03.2020 12:00:00 4,1 -4,7 34 18 61 33 NNO 1028,1 10
29.03.2020 11:00:00 5,2 -2,3 28 15 - - N 1027,7 10
29.03.2020 10:00:00 3,5 -0,9 22 12 36 19 N 1027,7 10
29.03.2020 09:00:00 2,8 -0,4 21 11 29 16 N 1027,3 10
29.03.2020 08:00:00 2,0 -0,4 18 10 - - N 1027,1 10
29.03.2020 07:00:00 1,7 -1,0 11 6 22 12 N 1026,9 6
29.03.2020 06:00:00 1,9 -2,1 15 8 22 12 NNW 1027,0 10
29.03.2020 05:00:00 1,8 -2,4 9 5 - - NNW 1027,1 10
29.03.2020 04:00:00 2,0 -3,1 15 8 32 18 N 1027,3 10
29.03.2020 03:00:00 3,4 -2,9 21 11 40 21 N 1027,5 10
29.03.2020 02:00:00 - - - - - - - - -

tt = temperatuur
td = dauwpunt
ff = windsnelheid
fx = windstoten
dd = windrichting
ppp = luchtdruk
vv = zicht

Weerstations in de omgeving